Location: Castiglione Fibocchi
(43.5333°N, 11.7667°E)
Time: 18:35:12
(UTC+00:00)

USA 215 - Pass Details

Date: 15 August 2020
Orbit: 1102 x 1106 km, 123.0° (Epoch: 08 August)

Event Time Altitude Azimuth Distance (km) Brightness Sun altitude
Rises 01:06:39 0° 56° (NE) 3,926 7.1 -27.3°
Reaches altitude 10° 01:09:31 10° 67° (ENE) 2,964 6.2 -27.1°
Maximum altitude 01:15:08 30° 126° (SE) 1,861 4.4 -26.5°
Enters shadow 01:16:30 28° 148° (SSE) 1,942 4.3 -26.4°
